TimeCDT,TemperatureF,Dew PointF,Humidity,Sea Level PressureIn,VisibilityMPH,Wind Direction,Wind SpeedMPH,Gust SpeedMPH,PrecipitationIn,Events,Conditions,WindDirDegrees,DateUTC
12:53 AM,64.0,61.0,90,29.69,10.0,ENE,8.1,-,N/A,,Overcast,60,2013-10-04 05:53:00
1:53 AM,64.0,60.1,87,29.69,10.0,ENE,11.5,20.7,N/A,,Overcast,70,2013-10-04 06:53:00
2:03 AM,64.4,60.8,88,29.73,10.0,ENE,12.7,-,N/A,,Overcast,70,2013-10-04 07:03:00
2:18 AM,64.4,59.0,83,29.72,10.0,ENE,10.4,-,N/A,,Overcast,70,2013-10-04 07:18:00
2:53 AM,63.0,60.1,90,29.68,10.0,East,15.0,20.7,N/A,,Overcast,80,2013-10-04 07:53:00
3:53 AM,63.0,60.1,90,29.68,10.0,East,13.8,-,N/A,,Overcast,80,2013-10-04 08:53:00
4:29 AM,64.4,60.8,88,29.71,10.0,ENE,12.7,18.4,N/A,,Overcast,70,2013-10-04 09:29:00
4:40 AM,64.4,60.8,88,29.71,10.0,ENE,8.1,17.3,N/A,,Overcast,60,2013-10-04 09:40:00
4:53 AM,64.0,61.0,90,29.68,10.0,Variable,3.5,-,N/A,,Overcast,0,2013-10-04 09:53:00
5:53 AM,64.9,62.1,90,29.68,10.0,East,11.5,19.6,N/A,,Overcast,80,2013-10-04 10:53:00
6:53 AM,66.0,63.0,90,29.68,10.0,East,10.4,-,N/A,,Overcast,100,2013-10-04 11:53:00
7:25 AM,66.2,62.6,88,29.69,10.0,East,16.1,23.0,N/A,,Overcast,90,2013-10-04 12:25:00
7:53 AM,64.9,61.0,87,29.66,10.0,East,12.7,-,N/A,,Overcast,100,2013-10-04 12:53:00
8:30 AM,66.2,62.6,88,29.69,10.0,ESE,11.5,20.7,N/A,,Overcast,120,2013-10-04 13:30:00
8:53 AM,66.0,63.0,90,29.66,10.0,East,10.4,-,N/A,,Overcast,90,2013-10-04 13:53:00
9:46 AM,68.0,62.6,83,29.68,10.0,ESE,15.0,27.6,N/A,,Overcast,110,2013-10-04 14:46:00
9:53 AM,68.0,63.0,84,29.65,10.0,ESE,15.0,26.5,N/A,,Overcast,110,2013-10-04 14:53:00
10:12 AM,66.2,62.6,88,29.68,10.0,Variable,4.6,-,N/A,,Overcast,0,2013-10-04 15:12:00
10:26 AM,69.8,64.4,83,29.67,10.0,ESE,9.2,-,N/A,,Overcast,120,2013-10-04 15:26:00
10:53 AM,69.1,64.0,84,29.64,10.0,SE,12.7,19.6,N/A,,Overcast,130,2013-10-04 15:53:00
11:06 AM,71.6,64.4,78,29.66,10.0,ESE,16.1,21.9,N/A,,Overcast,120,2013-10-04 16:06:00
11:28 AM,71.6,64.4,78,29.65,10.0,ESE,15.0,24.2,N/A,,Mostly Cloudy,110,2013-10-04 16:28:00
11:41 AM,71.6,64.4,78,29.65,10.0,SE,13.8,-,N/A,,Mostly Cloudy,130,2013-10-04 16:41:00
11:53 AM,73.0,66.0,79,29.61,10.0,ESE,12.7,20.7,N/A,,Mostly Cloudy,120,2013-10-04 16:53:00
12:01 PM,73.4,66.2,78,29.64,10.0,SE,12.7,21.9,N/A,,Mostly Cloudy,130,2013-10-04 17:01:00
12:12 PM,75.2,64.4,69,29.64,10.0,SSE,15.0,23.0,N/A,,Mostly Cloudy,160,2013-10-04 17:12:00
12:53 PM,79.0,64.9,62,29.60,10.0,SSE,13.8,26.5,N/A,,Mostly Cloudy,150,2013-10-04 17:53:00
1:53 PM,81.0,62.1,52,29.59,10.0,SW,18.4,23.0,N/A,,Mostly Cloudy,230,2013-10-04 18:53:00
2:53 PM,79.0,57.0,47,29.60,10.0,SW,19.6,29.9,N/A,,Clear,230,2013-10-04 19:53:00
3:53 PM,75.9,57.0,52,29.63,10.0,SW,24.2,29.9,N/A,,Partly Cloudy,220,2013-10-04 20:53:00
4:53 PM,69.1,54.0,58,29.69,10.0,WSW,25.3,34.5,N/A,,Clear,250,2013-10-04 21:53:00
5:53 PM,64.9,46.9,52,29.74,10.0,West,23.0,33.4,N/A,,Clear,260,2013-10-04 22:53:00
6:53 PM,57.9,43.0,58,29.79,10.0,West,23.0,32.2,N/A,,Clear,270,2013-10-04 23:53:00
7:53 PM,51.1,39.0,63,29.86,10.0,West,18.4,31.1,N/A,,Clear,270,2013-10-05 00:53:00
8:53 PM,46.9,35.1,63,29.91,10.0,West,23.0,33.4,N/A,,Clear,270,2013-10-05 01:53:00
9:53 PM,44.1,34.0,68,29.92,10.0,West,18.4,28.8,N/A,,Clear,280,2013-10-05 02:53:00
10:53 PM,43.0,33.1,68,29.94,10.0,West,16.1,26.5,N/A,,Clear,270,2013-10-05 03:53:00
11:53 PM,42.1,32.0,67,29.94,10.0,West,19.6,25.3,N/A,,Clear,270,2013-10-05 04:53:00